• In Hungary
  • List of Countries
  • For 7 days
  • Water Temperature
  • Satellite Maps
  • Weather Map
  • News
  • Weather Widgets
  • user-avatar
    Login

    Hourly Weather Panovo

    Today, 21 October, Sunday

    Time Temperature Precipitation Wind Pressure Humidity
    00:00 +3°C° 0 mm 0 mps 750 mmHg 93%
    01:00 +3°C° 0 mm 0 mps 750 mmHg 93%
    02:00 +2°C° 0 mm 0 mps 751 mmHg 93%
    03:00 +2°C° 0 mm 0 mps 751 mmHg 94%
    04:00 +2°C° 0 mm 0 mps 751 mmHg 94%
    05:00 +2°C° 0 mm 0 mps 751 mmHg 94%
    06:00 +2°C° 0 mm 0 mps 751 mmHg 93%
    07:00 +3°C° 0 mm 0 mps 751 mmHg 91%
    08:00 +3°C° 0 mm 0 mps 752 mmHg 90%
    09:00 +5°C° 0 mm 0 mps 752 mmHg 83%
    10:00 +6°C° 0 mm 0 mps 752 mmHg 76%
    11:00 +8°C° 0 mm 0 mps 752 mmHg 70%
    12:00 +8°C° 0 mm 0 mps 752 mmHg 67%
    13:00 +8°C° 0 mm 0 mps 752 mmHg 65%
    14:00 +9°C° 0 mm 0 mps 752 mmHg 63%
    15:00 +8°C° 0 mm 0 mps 752 mmHg 69%
    16:00 +6°C° 0 mm 0 mps 752 mmHg 74%
    17:00 +5°C° 0 mm 0 mps 752 mmHg 80%
    18:00 +6°C° 0 mm 1 mps 752 mmHg 82%
    19:00 +5°C° 0 mm 1 mps 752 mmHg 84%
    20:00 +5°C° 0 mm 1 mps 752 mmHg 86%
    21:00 +5°C° 0 mm 1 mps 752 mmHg 87%
    22:00 +4°C° 0 mm 1 mps 752 mmHg 88%
    23:00 +4°C° 0 mm 1 mps 752 mmHg 89%

    Tomorrow, 22 October, Monday

    Time Temperature Precipitation Wind Pressure Humidity
    00:00 +3°C° 0 mm 2 mps 752 mmHg 89%
    01:00 +3°C° 0 mm 2 mps 752 mmHg 90%
    02:00 +2°C° 0 mm 2 mps 752 mmHg 90%
    03:00 +2°C° 0 mm 2 mps 751 mmHg 90%
    04:00 +2°C° 0 mm 2 mps 751 mmHg 90%
    05:00 +2°C° 0 mm 2 mps 750 mmHg 90%
    06:00 +1°C° 0 mm 3 mps 750 mmHg 88%
    07:00 +2°C° 0 mm 3 mps 750 mmHg 86%
    08:00 +2°C° 0 mm 3 mps 750 mmHg 84%
    09:00 +4°C° 0 mm 4 mps 749 mmHg 80%
    10:00 +5°C° 0 mm 4 mps 749 mmHg 75%
    11:00 +6°C° 0 mm 4 mps 749 mmHg 70%
    12:00 +7°C° 0 mm 4 mps 748 mmHg 69%
    13:00 +8°C° 0 mm 4 mps 747 mmHg 68%
    14:00 +8°C° 0 mm 5 mps 746 mmHg 67%
    15:00 +7°C° 0 mm 4 mps 746 mmHg 70%
    16:00 +7°C° 0 mm 4 mps 745 mmHg 74%
    17:00 +6°C° 0 mm 4 mps 745 mmHg 78%
    18:00 +6°C° 0.1 mm 4 mps 745 mmHg 79%
    19:00 +6°C° 0.1 mm 4 mps 744 mmHg 81%
    20:00 +6°C° 0.1 mm 4 mps 744 mmHg 83%
    21:00 +6°C° 0.5 mm 4 mps 743 mmHg 85%
    22:00 +7°C° 0.5 mm 3 mps 743 mmHg 87%
    23:00 +7°C° 0.5 mm 3 mps 742 mmHg 90%

    Day after tomorrow, 23 October, Tuesday

    Time Temperature Precipitation Wind Pressure Humidity
    00:00 +7°C° 0.8 mm 3 mps 742 mmHg 91%
    01:00 +7°C° 0.8 mm 3 mps 742 mmHg 91%
    02:00 +7°C° 0.8 mm 3 mps 741 mmHg 92%
    03:00 +5°C° 0.4 mm 3 mps 741 mmHg 91%
    04:00 +5°C° 0.4 mm 3 mps 741 mmHg 90%
    05:00 +5°C° 0.4 mm 2 mps 741 mmHg 89%
    06:00 +5°C° 0 mm 2 mps 740 mmHg 88%
    07:00 +4°C° 0 mm 2 mps 740 mmHg 87%
    08:00 +4°C° 0 mm 2 mps 740 mmHg 87%
    09:00 +4°C° 0 mm 2 mps 740 mmHg 80%
    10:00 +5°C° 0 mm 2 mps 740 mmHg 74%
    11:00 +6°C° 0 mm 2 mps 739 mmHg 68%
    12:00 +7°C° 0 mm 2 mps 739 mmHg 66%
    13:00 +7°C° 0 mm 2 mps 738 mmHg 63%
    14:00 +7°C° 0 mm 2 mps 737 mmHg 60%
    15:00 +6°C° 0 mm 2 mps 736 mmHg 65%
    16:00 +5°C° 0 mm 2 mps 735 mmHg 70%
    17:00 +4°C° 0 mm 2 mps 734 mmHg 75%
    18:00 +3°C° 0 mm 3 mps 734 mmHg 76%
    19:00 +3°C° 0 mm 3 mps 733 mmHg 77%
    20:00 +1°C° 0 mm 4 mps 732 mmHg 78%
    21:00 +1°C° 0 mm 4 mps 730 mmHg 79%
    22:00 +1°C° 0 mm 4 mps 729 mmHg 79%
    23:00 +1°C° 0 mm 4 mps 728 mmHg 80%

    24 October, Wednesday

    Time Temperature Precipitation Wind Pressure Humidity
    00:00 +1°C° 0 mm 5 mps 727 mmHg 80%
    01:00 +1°C° 0 mm 5 mps 726 mmHg 80%
    02:00 +1°C° 0 mm 5 mps 725 mmHg 80%
    03:00 +1°C° 0.2 mm 5 mps 724 mmHg 81%
    04:00 +1°C° 0.2 mm 5 mps 723 mmHg 81%
    05:00 +2°C° 0.2 mm 5 mps 722 mmHg 81%
    06:00 +2°C° 0.4 mm 5 mps 722 mmHg 81%
    07:00 +2°C° 0.4 mm 5 mps 721 mmHg 81%
    08:00 +2°C° 0.4 mm 5 mps 721 mmHg 82%
    09:00 +2°C° 0.4 mm 5 mps 721 mmHg 82%
    10:00 +4°C° 0.4 mm 4 mps 721 mmHg 82%
    11:00 +4°C° 0.4 mm 4 mps 721 mmHg 82%
    12:00 +4°C° 0.3 mm 4 mps 721 mmHg 82%
    13:00 +4°C° 0.3 mm 4 mps 721 mmHg 82%
    14:00 +4°C° 0.3 mm 3 mps 721 mmHg 82%
    15:00 +4°C° 0.3 mm 3 mps 721 mmHg 84%
    16:00 +4°C° 0.3 mm 3 mps 721 mmHg 86%
    17:00 +4°C° 0.3 mm 2 mps 721 mmHg 87%
    18:00 +4°C° 0.3 mm 2 mps 721 mmHg 88%
    19:00 +4°C° 0.3 mm 2 mps 721 mmHg 89%
    20:00 +4°C° 0.3 mm 2 mps 721 mmHg 90%
    21:00 +4°C° 0.4 mm 2 mps 721 mmHg 90%
    22:00 +4°C° 0.4 mm 2 mps 721 mmHg 91%
    23:00 +4°C° 0.4 mm 2 mps 721 mmHg 91%

    25 October, Thursday

    Time Temperature Precipitation Wind Pressure Humidity
    00:00 +3°C° 0.5 mm 3 mps 721 mmHg 91%
    01:00 +3°C° 0.5 mm 3 mps 721 mmHg 92%
    02:00 +3°C° 0.5 mm 3 mps 721 mmHg 92%
    03:00 +3°C° 0.4 mm 3 mps 721 mmHg 91%
    04:00 +3°C° 0.4 mm 3 mps 722 mmHg 91%
    05:00 +3°C° 0.4 mm 3 mps 722 mmHg 90%
    06:00 +3°C° 0.2 mm 4 mps 722 mmHg 90%
    07:00 +3°C° 0.2 mm 4 mps 722 mmHg 89%
    08:00 +3°C° 0.2 mm 4 mps 722 mmHg 88%
    09:00 +3°C° 0.3 mm 4 mps 723 mmHg 87%
    10:00 +3°C° 0.3 mm 4 mps 723 mmHg 85%
    11:00 +3°C° 0.3 mm 4 mps 724 mmHg 84%
    12:00 +4°C° 0.2 mm 4 mps 724 mmHg 82%
    13:00 +4°C° 0.2 mm 4 mps 725 mmHg 80%
    14:00 +4°C° 0.2 mm 4 mps 725 mmHg 78%
    15:00 +3°C° 0 mm 4 mps 726 mmHg 81%
    16:00 +3°C° 0 mm 3 mps 726 mmHg 83%
    17:00 +3°C° 0 mm 2 mps 727 mmHg 85%
    18:00 +2°C° 0 mm 3 mps 727 mmHg 86%
    19:00 +1°C° 0 mm 3 mps 728 mmHg 88%
    20:00 +1°C° 0 mm 3 mps 728 mmHg 90%
    21:00 +1°C° 0 mm 3 mps 729 mmHg 91%
    22:00 +1°C° 0 mm 2 mps 729 mmHg 93%
    23:00 +1°C° 0 mm 2 mps 729 mmHg 94%

    26 October, Friday

    Time Temperature Precipitation Wind Pressure Humidity
    00:00 +1°C° 0 mm 2 mps 729 mmHg 95%
    01:00 +1°C° 0 mm 2 mps 730 mmHg 95%
    02:00 +1°C° 0 mm 2 mps 730 mmHg 96%
    03:00 +1°C° 0 mm 2 mps 730 mmHg 96%
    04:00 +1°C° 0 mm 2 mps 730 mmHg 95%
    05:00 0°C° 0 mm 3 mps 731 mmHg 95%
    06:00 +1°C° 0 mm 2 mps 731 mmHg 94%
    07:00 +1°C° 0 mm 2 mps 731 mmHg 93%
    08:00 +1°C° 0 mm 2 mps 731 mmHg 92%
    09:00 +2°C° 0.1 mm 2 mps 731 mmHg 89%
    10:00 +2°C° 0.1 mm 2 mps 732 mmHg 86%
    11:00 +3°C° 0.1 mm 2 mps 732 mmHg 82%
    12:00 +3°C° 0.3 mm 2 mps 732 mmHg 83%
    13:00 +3°C° 0.3 mm 2 mps 732 mmHg 83%
    14:00 +4°C° 0.3 mm 2 mps 732 mmHg 83%
    15:00 +3°C° 0.1 mm 2 mps 732 mmHg 86%
    16:00 +3°C° 0.1 mm 2 mps 733 mmHg 89%
    17:00 +2°C° 0.1 mm 2 mps 733 mmHg 91%
    18:00 +2°C° 0 mm 2 mps 733 mmHg 92%
    19:00 +1°C° 0 mm 2 mps 733 mmHg 93%
    20:00 +1°C° 0 mm 2 mps 733 mmHg 93%
    21:00 +1°C° 0 mm 2 mps 734 mmHg 93%
    22:00 +1°C° 0 mm 2 mps 734 mmHg 94%
    23:00 +1°C° 0 mm 2 mps 734 mmHg 94%
    Show more